{"data":{"norad_id":53900,"epoch":"2026-09-19T11:16:37.204320Z","epoch_age_seconds":175988,"freshness":"STALE","line1":"1 53900U 22119Q   26262.46987505  .00001095  00000+0  43555-4 0  9994","line2":"2 53900  53.1611 168.3124 0001178  91.6653 268.4485 15.34388749221013","mean_motion":15.34388749,"eccentricity":0.0001178,"inclination_deg":53.1611,"raan_deg":168.3124,"arg_perigee_deg":91.6653,"mean_anomaly_deg":268.4485,"bstar":4.3555e-5,"rev_number":22101,"period_min":93.848446225801,"perigee_km":461.93082583489,"apogee_km":463.54253567407,"semimajor_km":6840.8736807545,"source":"CELESTRAK","updated_at":"2026-09-21T09:00:33.030797Z"}}